Location: �perlecques
(50.8057°N, 2.1521°E)
Time: 02:07:22
(UTC+00:00)

MetOp-A - Pass Details

Date: 09 April 2020
Orbit: 819 x 821 km, 98.5° (Epoch: 03 June)

Event Time Altitude Azimuth Distance (km) Brightness Sun altitude
Exits shadow 19:13:32 - 146° (SE) 3,227 6.7 -6.2°
Reaches altitude 10° 19:15:38 10° 141° (SE) 2,415 6.1 -6.5°
Maximum altitude 19:20:47 51° 67° (ENE) 1,033 4.4 -7.3°
Drops below altitude 10° 19:25:58 10° 353° (N) 2,431 7.0 -8.0°
Sets 19:28:22 0° 349° (N) 3,368 7.9 -8.4°
